[[{"header":{"parameterUnit":"m.s-1","parameterCategory":2,"la1":30.2991,"la2":30.254,"lo1":-89.0895,"lo2":-89.0444,"dy":0.0017,"dx":0.0017,"nx":28,"ny":28,"refTime":"2025-02-07T09:00:00:Z","depth":"0","parameterNumber":2,"parameterNumberName":"U-component_of_CURRENTS"},"data":[0,0,0,0,0,0,0,0,0,0,0,0,0,0,0,0,0,0,0,0,0,0,0,0,0,0,0,0,0,0,0,0,0,0,0,0,0,0,0,0,0,0,0,0,0,0,0,0,0,0,0,0,0,0,0,0,0,0,0.2308,0.2308,0,0.2287,0.2287,0.2287,0.2264,0.2264,0.2263,0.2263,0.2243,0.2243,0.2243,0,0,0,0,0,0,0,0,0,0,0,0,0,0.2349,0.2348,0.2308,0.2308,0.2308,0.2287,0.2287,0.2287,0.2264,0.2264,0.2263,0.2263,0.2244,0.2243,0.2243,0,0,0,0,0,0,0,0,0,0,0,0,0,0.2329,0.2348,0.2308,0.2295,0.2294,0.2288,0.2287,0.2286,0.2264,0.2264,0.2263,0.2263,0.2244,0.2243,0.2243,0.2246,0,0,0.2241,0.2241,0,0,0,0,0,0,0,0,0.233,0.2327,0.2297,0.2296,0.2295,0.2279,0.2294,0.2273,0.2264,0.2274,0.2263,0.2263,0.2257,0.2255,0.225,0.2245,0.2244,0.2241,0.2241,0.2241,0.224,0,0,0,0,0,0,0,0.2331,0.2328,0.2299,0.2297,0.2296,0.2298,0.2294,0.229,0.2266,0.2273,0.2272,0.2272,0.2256,0.225,0.2249,0.2243,0.2241,0.2241,0.224,0.224,0.2269,0.227,0,0,0,0,0,0,0.2336,0.2329,0.2299,0.2298,0.2314,0.2297,0.2293,0.2283,0.2266,0.2263,0.2272,0.2271,0.2251,0.225,0.2248,0.227,0.2241,0.224,0.224,0.2268,0.2269,0.227,0,0,0,0,0,0,0.2337,0.2333,0.23,0.2315,0.2311,0.2297,0.2286,0.2283,0.2278,0.2266,0.2263,0.227,0.2251,0.2249,0.2253,0.2269,0.224,0.2239,0.2267,0.2268,0.227,0.2302,0,0,0,0,0,0,0.2338,0.2333,0.233,0.2315,0.2311,0.2298,0.2286,0.2283,0.2279,0.2278,0.2263,0.2261,0.2251,0.2254,0.2253,0.2267,0.2239,0.2265,0.2267,0.2269,0.2299,0.2304,0.2309,0,0,0,0,0,0.2339,0.2334,0.2329,0.2326,0.2305,0.2299,0.2297,0.2285,0.228,0.2279,0.2275,0.2262,0.2266,0.2254,0.2252,0.2268,0.2264,0.2267,0.2269,0.2297,0.2303,0.2308,0,0,0,0,0,0,0.2347,0.2331,0.2326,0.2314,0.231,0.2295,0.2295,0.2288,0.2283,0.2284,0.227,0.2268,0.2281,0.2271,0.2259,0.2284,0.2265,0.2267,0.2287,0.2293,0.2297,0.23,0.2239,0,0,0,0,0,0.2349,0.234,0.2329,0.2321,0.232,0.2309,0.2306,0.2299,0.2293,0.229,0.2281,0.228,0.229,0.2288,0.229,0.2298,0.2301,0.2309,0.2314,0.2318,0.2321,0.2356,0.2364,0.2278,0.2278,0.2278,0,0,0.2349,0.2341,0.2335,0.2323,0.2318,0.2317,0.2306,0.2303,0.2306,0.229,0.2291,0.2295,0.2297,0.231,0.2315,0.2302,0.2342,0.2321,0.2324,0.2325,0.2359,0.2368,0.2375,0.228,0.228,0.2279,0,0,0.2348,0.234,0.2333,0.233,0.2327,0.2325,0.2327,0.2316,0.2316,0.2321,0.2319,0.2333,0.2332,0.2341,0.2346,0.2378,0.2369,0.2379,0.2398,0.2433,0.244,0.2446,0.2451,0.2458,0.2377,0.2377,0.2377,0,0.2351,0.2337,0.2332,0.2328,0.2328,0.2331,0.2328,0.2333,0.2326,0.2334,0.2327,0.2353,0.235,0.2381,0.2391,0.2388,0.2396,0.2375,0.2439,0.2445,0.2451,0.2455,0.2461,0.2379,0.2379,0.2378,0.2378,0,0.234,0.2335,0.2334,0.2331,0.2332,0.2332,0.234,0.2348,0.2353,0.2359,0.2389,0.2394,0.2409,0.2416,0.2411,0.2455,0.2443,0.2444,0.2423,0.2462,0.2463,0.2469,0.2381,0.2381,0.238,0.238,0,0,0.2325,0.2327,0.2325,0.2323,0.2333,0.2329,0.2352,0.2368,0.2385,0.2398,0.2422,0.2448,0.2456,0.2463,0.2466,0.2493,0.2537,0.2485,0.2486,0.2486,0.2596,0.2528,0.2528,0.2552,0.2554,0.2555,0.2575,0,0.2318,0.231,0.2316,0.2316,0.2312,0.2332,0.2351,0.2371,0.2395,0.2421,0.2452,0.2475,0.2474,0.2484,0.2516,0.2537,0.2558,0.253,0.2562,0.2562,0.2494,0.2535,0.2393,0.2394,0.2582,0.2583,0.2584,0,0.2295,0.2296,0.229,0.2304,0.2305,0.2311,0.2343,0.2364,0.2416,0.2438,0.248,0.2499,0.2546,0.2537,0.26,0.2583,0.2591,0.2604,0.2605,0.2534,0.2506,0.2389,0.2399,0.2312,0.2593,0.2593,0.2592,0,0.2265,0.2273,0.2267,0.2268,0.229,0.2297,0.2318,0.2364,0.2391,0.245,0.248,0.2535,0.2567,0.2603,0.2629,0.2619,0.2691,0.2679,0.2622,0.2616,0.2497,0.2478,0.2423,0.272,0.272,0.272,0.272,0,0.2241,0.2234,0.225,0.2243,0.2249,0.2274,0.2296,0.2331,0.2389,0.2422,0.2485,0.252,0.259,0.2634,0.2647,0.2656,0.2708,0.2631,0.2625,0.2502,0.2484,0.2404,0.2398,0.2721,0.2721,0.2721,0.272,0,0.2199,0.2209,0.2202,0.2223,0.2229,0.2231,0.2276,0.2297,0.2365,0.2412,0.2433,0.2526,0.2577,0.2629,0.2685,0.2671,0.2593,0.2672,0.2508,0.2481,0.2323,0.2324,0.2179,0.2126,0.2603,0.2602,0.26,0,0.2174,0.2166,0.2177,0.2171,0.2177,0.2192,0.2205,0.2272,0.2298,0.2403,0.2419,0.2498,0.2527,0.2591,0.2577,0.2579,0.2527,0.2454,0.2408,0.2297,0.2296,0.2195,0.2156,0.2259,0.2255,0.2252,0.2249,0,0.2135,0.2138,0.2135,0.2122,0.2122,0.2127,0.215,0.2168,0.2248,0.2293,0.2344,0.2378,0.2438,0.2382,0.2401,0.2387,0.2301,0.2387,0.2322,0.2064,0.1902,0.1853,0.2253,0.2221,0.2224,0.2226,0.2227,0.2228,0.2106,0.209,0.2081,0.206,0.206,0.2039,0.2019,0.2053,0.2074,0.2107,0.2206,0.2208,0.2215,0.2209,0.2185,0.2042,0.2088,0.196,0.1984,0.1901,0.1803,0.2126,0.206,0.2061,0.2063,0.2064,0.2066,0,0.2054,0.2034,0.2017,0.1978,0.1942,0.1965,0.196,0.1924,0.1905,0.1955,0.1977,0.1939,0.1869,0.1861,0.1752,0.1657,0.157,0.1605,0.1439,0.1437,0.1759,0.1697,0.1486,0.1486,0.1486,0.1486,0.1486,0.1486,0.2025,0.1979,0.1958,0.1865,0.1836,0.1753,0.1729,0.1695,0.1698,0.1642,0.161,0.1637,0.1648,0.1538,0.1395,0.1361,0.1256,0.1142,0.1208,0.1442,0.1476,0.1509,0.1446,0.1185,0.1185,0.0761,0.0759,0.0756]},{"header":{"parameterUnit":"m.s-1","parameterCategory":2,"la1":30.2991,"la2":30.254,"lo1":-89.0895,"lo2":-89.0444,"dy":0.0017,"dx":0.0017,"nx":28,"ny":28,"refTime":"2025-02-07T09:00:00:Z","depth":"0","parameterNumber":3,"parameterNumberName":"V-component_of_CURRENTS"},"data":[0,0,0,0,0,0,0,0,0,0,0,0,0,0,0,0,0,0,0,0,0,0,0,0,0,0,0,0,0,0,0,0,0,0,0,0,0,0,0,0,0,0,0,0,0,0,0,0,0,0,0,0,0,0,0,0,0,0,0.0401,0.0401,0,0.0387,0.0387,0.0387,0.037,0.037,0.0369,0.0369,0.0348,0.0347,0.0347,0,0,0,0,0,0,0,0,0,0,0,0,0,0.0379,0.038,0.0401,0.0401,0.04,0.0387,0.0387,0.0387,0.037,0.037,0.0369,0.0369,0.0348,0.0347,0.0347,0,0,0,0,0,0,0,0,0,0,0,0,0,0.0378,0.038,0.0401,0.0391,0.039,0.0387,0.0387,0.0387,0.037,0.037,0.0369,0.0369,0.0348,0.0347,0.0347,0.0348,0,0,0.0345,0.0345,0,0,0,0,0,0,0,0,0.0378,0.0379,0.0393,0.0392,0.0391,0.0381,0.0372,0.0374,0.037,0.0376,0.0369,0.0369,0.0359,0.0357,0.0354,0.0347,0.0346,0.0345,0.0344,0.0344,0.0344,0,0,0,0,0,0,0,0.0378,0.0379,0.0394,0.0393,0.0392,0.0377,0.0377,0.0372,0.0368,0.0376,0.0375,0.0375,0.0358,0.0355,0.0353,0.0346,0.0345,0.0344,0.0344,0.0344,0.0343,0.0343,0,0,0,0,0,0,0.0385,0.038,0.0395,0.0394,0.0385,0.0378,0.0377,0.0383,0.0369,0.0366,0.0376,0.0375,0.0356,0.0354,0.0353,0.0369,0.0344,0.0344,0.0343,0.0342,0.0343,0.0343,0,0,0,0,0,0,0.0384,0.0386,0.0395,0.0387,0.0387,0.0379,0.0385,0.0383,0.0382,0.0369,0.0366,0.0376,0.0356,0.0353,0.0353,0.0368,0.0343,0.0343,0.0342,0.0343,0.0343,0.0392,0,0,0,0,0,0,0.0384,0.0386,0.0391,0.0388,0.0388,0.0399,0.0386,0.0383,0.0383,0.0382,0.0369,0.0366,0.0355,0.0355,0.0353,0.0366,0.0342,0.0342,0.0342,0.0343,0.039,0.0394,0.0398,0,0,0,0,0,0.0383,0.0394,0.0391,0.0393,0.0395,0.0399,0.0398,0.039,0.0383,0.0386,0.0378,0.0367,0.0357,0.0355,0.0352,0.0366,0.0341,0.0342,0.0343,0.0388,0.0394,0.0398,0,0,0,0,0,0,0.0385,0.0394,0.039,0.0403,0.0402,0.0397,0.04,0.0394,0.0389,0.0387,0.0373,0.037,0.0375,0.0362,0.0359,0.0366,0.0347,0.0347,0.0382,0.0387,0.0391,0.0403,0.0342,0,0,0,0,0,0.0389,0.0401,0.0402,0.0411,0.0414,0.0407,0.0407,0.0401,0.0398,0.0395,0.0388,0.0379,0.0377,0.0375,0.0369,0.0374,0.0359,0.038,0.0384,0.0387,0.0395,0.0387,0.0391,0.0346,0.0346,0.0346,0,0,0.0392,0.0398,0.0404,0.0412,0.0412,0.0426,0.0406,0.041,0.0421,0.0394,0.0407,0.0393,0.0381,0.0387,0.0388,0.0379,0.039,0.0388,0.0391,0.0397,0.0388,0.0392,0.0396,0.0346,0.0346,0.0346,0,0,0.0408,0.0411,0.0427,0.0433,0.0437,0.0437,0.0441,0.0439,0.0437,0.0445,0.043,0.0426,0.0421,0.0417,0.0413,0.0434,0.0411,0.043,0.0461,0.0453,0.0457,0.046,0.0441,0.0442,0.0432,0.0432,0.0432,0,0.041,0.0436,0.0431,0.045,0.0461,0.0447,0.0469,0.0467,0.0465,0.0473,0.0455,0.0455,0.0438,0.0453,0.0456,0.0445,0.0431,0.0446,0.0459,0.0462,0.0465,0.0444,0.0445,0.0434,0.0434,0.0434,0.0433,0,0.0443,0.0462,0.0473,0.0497,0.0506,0.0522,0.0523,0.0529,0.0525,0.0526,0.0536,0.051,0.0511,0.0502,0.0484,0.0497,0.0479,0.0466,0.045,0.0472,0.0449,0.0449,0.0438,0.0437,0.0436,0.0436,0,0,0.0454,0.0491,0.0494,0.0518,0.0534,0.0549,0.0569,0.059,0.0616,0.0598,0.0626,0.0605,0.0587,0.0581,0.0556,0.0544,0.0539,0.0514,0.0512,0.0499,0.0515,0.0501,0.0499,0.0531,0.0531,0.0531,0.049,0,0.0483,0.0533,0.0541,0.0589,0.0618,0.0618,0.0645,0.0658,0.0664,0.0685,0.0656,0.0667,0.0619,0.0618,0.0599,0.0561,0.0542,0.0551,0.0491,0.049,0.0479,0.05,0.0527,0.0493,0.0489,0.0489,0.0489,0,0.0515,0.0548,0.0601,0.0651,0.0664,0.0687,0.0735,0.0757,0.0776,0.0779,0.0777,0.0751,0.0732,0.0685,0.0628,0.0637,0.0579,0.0541,0.0538,0.051,0.0476,0.047,0.0492,0.0463,0.0489,0.0489,0.0489,0,0.0538,0.0591,0.0638,0.0654,0.0705,0.0729,0.0756,0.0788,0.0824,0.0838,0.0862,0.0828,0.0818,0.0748,0.0655,0.0644,0.059,0.0563,0.0494,0.0492,0.0496,0.0494,0.0489,0.052,0.052,0.052,0.052,0,0.0572,0.0609,0.0653,0.0681,0.0745,0.0764,0.0833,0.0853,0.0896,0.0953,0.0911,0.0937,0.0834,0.0785,0.0688,0.0595,0.0611,0.0507,0.0487,0.0512,0.0512,0.0471,0.0445,0.0518,0.0519,0.0519,0.0519,0,0.0591,0.0618,0.0678,0.0737,0.0758,0.0804,0.0883,0.0936,0.0967,0.1037,0.1042,0.1022,0.0962,0.0851,0.0741,0.0647,0.0535,0.0509,0.0539,0.0524,0.0433,0.0408,0.038,0.037,0.0433,0.0433,0.0432,0,0.0607,0.064,0.0716,0.0756,0.0785,0.0856,0.0911,0.0965,0.1027,0.1094,0.1132,0.1094,0.1083,0.0916,0.0749,0.0587,0.0532,0.0492,0.0473,0.0441,0.0399,0.0393,0.0387,0.0491,0.0491,0.0491,0.0491,0,0.064,0.0663,0.0713,0.0795,0.0858,0.0939,0.102,0.108,0.1153,0.1214,0.1274,0.1269,0.1123,0.0982,0.0759,0.0638,0.0495,0.0488,0.0456,0.0449,0.0443,0.0419,0.0493,0.0491,0.0491,0.0491,0.0491,0.0491,0.0661,0.0699,0.0761,0.0837,0.0912,0.1007,0.1079,0.1172,0.1274,0.1371,0.1369,0.1381,0.1195,0.0905,0.0748,0.0503,0.0497,0.0431,0.0403,0.04,0.04,0.0469,0.0445,0.0444,0.0444,0.0444,0.0444,0,0.0683,0.0726,0.0799,0.089,0.0969,0.1008,0.1141,0.1218,0.1337,0.1427,0.1479,0.1404,0.1185,0.0939,0.0617,0.0462,0.041,0.0375,0.0384,0.0379,0.0445,0.0459,0.0436,0.0436,0.0436,0.0436,0.0436,0.0436,0.0697,0.0756,0.0791,0.091,0.0978,0.1085,0.116,0.1285,0.1378,0.1479,0.15,0.1511,0.1355,0.0828,0.051,0.0423,0.0349,0.0313,0.0271,0.0325,0.0329,0.0332,0.0341,0.0293,0.0293,0.0246,0.0246,0.0245]}],[{"header":{"parameterUnit":"m.s-1","parameterCategory":2,"la1":30.2991,"la2":30.254,"lo1":-89.0895,"lo2":-89.0444,"dy":0.0017,"dx":0.0017,"nx":28,"ny":28,"refTime":"2025-02-07T09:00:00:Z","depth":"2","parameterNumber":2,"parameterNumberName":"U-component_of_CURRENTS"},"data":[0,0,0,0,0,0,0,0,0,0,0,0,0,0,0,0,0,0,0,0,0,0,0,0,0,0,0,0,0,0,0,0,0,0,0,0,0,0,0,0,0,0,0,0,0,0,0,0,0,0,0,0,0,0,0,0,0,0,0.1961,0.1961,0,0.1957,0.1957,0.1957,0.1952,0.1952,0.1952,0.1952,0.1948,0.1948,0.1948,0,0,0,0,0,0,0,0,0,0,0,0,0,0.1977,0.1977,0.1961,0.1961,0.1961,0.1957,0.1957,0.1957,0.1952,0.1952,0.1952,0.1952,0.1948,0.1948,0.1948,0,0,0,0,0,0,0,0,0,0,0,0,0,0.197,0.1977,0.1961,0.1959,0.1958,0.1957,0.1957,0.1957,0.1952,0.1952,0.1952,0.1952,0.1948,0.1948,0.1948,0.1946,0,0,0.1947,0.1947,0,0,0,0,0,0,0,0,0.1971,0.1969,0.1959,0.1959,0.1959,0.1956,0.1962,0.1954,0.1952,0.1953,0.1952,0.1952,0.1952,0.1951,0.1949,0.1946,0.1946,0.1947,0.1947,0.1947,0.1947,0,0,0,0,0,0,0,0.1971,0.197,0.1958,0.1959,0.1959,0.1963,0.1962,0.196,0.1951,0.1953,0.1953,0.1954,0.1951,0.1949,0.1948,0.1946,0.1947,0.1947,0.1947,0.1947,0.1987,0.1988,0,0,0,0,0,0,0.1973,0.197,0.1958,0.1958,0.1966,0.1963,0.1961,0.1956,0.1951,0.1951,0.1954,0.1954,0.1949,0.1949,0.1948,0.1981,0.1947,0.1947,0.1947,0.1986,0.1987,0.1988,0,0,0,0,0,0,0.1973,0.1972,0.1958,0.1966,0.1964,0.1963,0.1956,0.1956,0.1962,0.1953,0.1952,0.1962,0.1949,0.1949,0.196,0.198,0.1947,0.1947,0.1984,0.1986,0.1988,0.2024,0,0,0,0,0,0,0.1974,0.1972,0.1973,0.1965,0.1964,0.1964,0.1956,0.1956,0.1963,0.1963,0.1959,0.1958,0.1949,0.196,0.1959,0.1979,0.1947,0.1983,0.1985,0.1987,0.2022,0.2027,0.2032,0,0,0,0,0,0.1974,0.1974,0.1973,0.1972,0.1964,0.1964,0.1964,0.1962,0.1963,0.1967,0.197,0.1958,0.1974,0.1961,0.196,0.1979,0.1982,0.1984,0.1987,0.2019,0.2026,0.2032,0,0,0,0,0,0,0.1981,0.1973,0.1972,0.1969,0.1971,0.1964,0.197,0.1969,0.1973,0.1977,0.1968,0.1967,0.1987,0.1979,0.1965,0.1999,0.1978,0.1981,0.2003,0.2009,0.2014,0.2015,0.1947,0,0,0,0,0,0.1984,0.1981,0.1977,0.1977,0.1979,0.1977,0.198,0.1979,0.198,0.1982,0.198,0.1985,0.1996,0.1999,0.2003,0.2017,0.2018,0.2032,0.2037,0.2041,0.2043,0.2074,0.2082,0.1997,0.1997,0.1997,0,0,0.1986,0.1983,0.1981,0.1979,0.198,0.1985,0.1979,0.1986,0.1994,0.1982,0.1995,0.2001,0.2004,0.2023,0.2031,0.2019,0.2065,0.2044,0.2048,0.2047,0.2078,0.2086,0.2093,0.1999,0.1998,0.1998,0,0,0.1988,0.1988,0.1988,0.1991,0.1997,0.1999,0.2004,0.2004,0.201,0.2024,0.2024,0.2043,0.205,0.2059,0.2064,0.21,0.2092,0.2105,0.2128,0.2159,0.2167,0.2173,0.2179,0.2185,0.2106,0.2106,0.2106,0,0.1995,0.1988,0.1989,0.1992,0.1997,0.2007,0.2011,0.2021,0.2026,0.2038,0.2035,0.2069,0.2069,0.21,0.2113,0.2112,0.212,0.2103,0.2166,0.2172,0.2178,0.2182,0.2189,0.2108,0.2108,0.2108,0.2107,0,0.1991,0.1994,0.1997,0.2003,0.201,0.2018,0.203,0.2045,0.2059,0.207,0.2105,0.2113,0.2134,0.2142,0.2137,0.2182,0.2172,0.217,0.2149,0.2189,0.2191,0.2197,0.2111,0.211,0.211,0.2109,0,0,0.1982,0.1992,0.1994,0.1997,0.2016,0.2018,0.2046,0.2069,0.2091,0.2114,0.2142,0.2172,0.2185,0.2193,0.2196,0.2221,0.2266,0.2215,0.2215,0.2216,0.2322,0.2254,0.2254,0.228,0.2281,0.2283,0.2304,0,0.198,0.1983,0.1992,0.2003,0.2005,0.2029,0.2052,0.2079,0.2109,0.2141,0.2172,0.2201,0.2203,0.2217,0.2247,0.2265,0.2286,0.2259,0.2286,0.2287,0.2219,0.2261,0.2059,0.2057,0.231,0.2311,0.2312,0,0.1967,0.1972,0.1977,0.1998,0.2003,0.2016,0.2056,0.208,0.2137,0.2164,0.2211,0.2232,0.2279,0.227,0.2329,0.2315,0.2323,0.2331,0.2332,0.2259,0.2231,0.206,0.2059,0.2323,0.2322,0.2321,0.232,0,0.194,0.1959,0.1962,0.1967,0.1996,0.201,0.2036,0.2087,0.2117,0.2183,0.2216,0.2271,0.2307,0.2337,0.2361,0.2352,0.2414,0.2402,0.2345,0.2339,0.2167,0.2144,0.244,0.244,0.244,0.244,0.244,0,0.1922,0.1924,0.195,0.1948,0.1964,0.1994,0.2027,0.2064,0.2127,0.2163,0.2229,0.2263,0.233,0.237,0.2378,0.2383,0.2433,0.2354,0.2347,0.2173,0.2151,0.238,0.2373,0.2441,0.2441,0.244,0.244,0,0.1885,0.1902,0.1906,0.1937,0.1948,0.196,0.2014,0.2039,0.2112,0.2163,0.2187,0.2276,0.2326,0.2372,0.242,0.24,0.2408,0.2392,0.2172,0.2139,0.2303,0.2298,0.2329,0.2327,0.2325,0.2323,0.2322,0,0.1865,0.1863,0.1888,0.189,0.1903,0.1931,0.195,0.2021,0.205,0.2157,0.2172,0.2253,0.2277,0.2328,0.2302,0.2297,0.2373,0.2114,0.206,0.2305,0.2296,0.2293,0.229,0.1842,0.1837,0.1833,0.183,0,0.183,0.184,0.1845,0.1848,0.186,0.1872,0.1905,0.1923,0.2006,0.2051,0.2096,0.2125,0.2175,0.2077,0.2088,0.2062,0.2098,0.2029,0.2353,0.1905,0.1849,0.1839,0.1852,0.1793,0.1797,0.1799,0.1801,0.1803,0.1804,0.1796,0.1799,0.1793,0.1805,0.1792,0.1777,0.1813,0.1835,0.1866,0.1952,0.1932,0.1946,0.1852,0.1783,0.1735,0.189,0.1803,0.1815,0.1831,0.1774,0.1719,0.1626,0.1628,0.1631,0.1633,0.1635,0,0.1758,0.1748,0.1742,0.172,0.1695,0.1728,0.1726,0.169,0.167,0.1712,0.1725,0.1573,0.1495,0.1517,0.1368,0.1359,0.1338,0.1312,0.1263,0.1301,0.1335,0.1252,0.0965,0.0963,0.0961,0.096,0,0,0.1733,0.1697,0.1681,0.161,0.1598,0.1534,0.1513,0.1473,0.1468,0.1413,0.1379,0.1466,0.1487,0.1223,0.1171,0.1041,0.117,0.0998,0.1536,0.1519,0.155,0.1619,0.1534,0,0,0,0,0]},{"header":{"parameterUnit":"m.s-1","parameterCategory":2,"la1":30.2991,"la2":30.254,"lo1":-89.0895,"lo2":-89.0444,"dy":0.0017,"dx":0.0017,"nx":28,"ny":28,"refTime":"2025-02-07T09:00:00:Z","depth":"2","parameterNumber":3,"parameterNumberName":"V-component_of_CURRENTS"},"data":[0,0,0,0,0,0,0,0,0,0,0,0,0,0,0,0,0,0,0,0,0,0,0,0,0,0,0,0,0,0,0,0,0,0,0,0,0,0,0,0,0,0,0,0,0,0,0,0,0,0,0,0,0,0,0,0,0,0,0.0166,0.0166,0,0.0151,0.015,0.015,0.0136,0.0136,0.0135,0.0135,0.0111,0.011,0.011,0,0,0,0,0,0,0,0,0,0,0,0,0,0.015,0.0151,0.0166,0.0166,0.0166,0.0151,0.015,0.015,0.0136,0.0136,0.0135,0.0135,0.0111,0.011,0.0109,0,0,0,0,0,0,0,0,0,0,0,0,0,0.0147,0.0151,0.0166,0.0158,0.0157,0.0151,0.015,0.015,0.0136,0.0135,0.0135,0.0135,0.0111,0.011,0.0109,0.0105,0,0,0.0107,0.0106,0,0,0,0,0,0,0,0,0.0147,0.0147,0.0159,0.0158,0.0157,0.0146,0.0136,0.0135,0.0136,0.0142,0.0135,0.0135,0.0123,0.0121,0.0116,0.0104,0.0103,0.0107,0.0106,0.0106,0.0105,0,0,0,0,0,0,0,0.0147,0.0148,0.0158,0.0159,0.0158,0.0144,0.0143,0.0135,0.0132,0.0142,0.0141,0.0141,0.0122,0.0117,0.0116,0.0103,0.0107,0.0106,0.0105,0.0105,0.0099,0.0099,0,0,0,0,0,0,0.0154,0.0148,0.0159,0.0158,0.0153,0.0144,0.0144,0.0149,0.0132,0.013,0.0141,0.0141,0.0119,0.0117,0.0115,0.013,0.0106,0.0105,0.0104,0.0099,0.0099,0.01,0,0,0,0,0,0,0.0154,0.0155,0.0159,0.0153,0.0153,0.0145,0.015,0.0148,0.0148,0.0132,0.013,0.0143,0.0119,0.0116,0.0114,0.0128,0.0104,0.0103,0.0098,0.0099,0.0099,0.0146,0,0,0,0,0,0,0.0153,0.0155,0.0159,0.0154,0.0154,0.0162,0.0151,0.0148,0.0149,0.0148,0.0133,0.013,0.0118,0.0115,0.0113,0.0126,0.0103,0.0098,0.0099,0.0099,0.0144,0.0148,0.0152,0,0,0,0,0,0.0153,0.0162,0.016,0.0161,0.0161,0.0163,0.0161,0.0154,0.0149,0.0152,0.0143,0.0131,0.0118,0.0115,0.0112,0.0125,0.0097,0.0098,0.0099,0.0142,0.0148,0.0152,0,0,0,0,0,0,0.0156,0.0161,0.0159,0.0169,0.0168,0.0161,0.0164,0.0158,0.0153,0.0151,0.0136,0.0133,0.0136,0.0123,0.0119,0.0125,0.0106,0.0106,0.014,0.0145,0.0148,0.0159,0.0102,0,0,0,0,0,0.016,0.0169,0.0169,0.0176,0.0179,0.0172,0.0171,0.0167,0.0162,0.0159,0.0151,0.0141,0.0136,0.0135,0.0126,0.0129,0.0114,0.0135,0.0139,0.0143,0.0149,0.0137,0.0141,0.0103,0.0103,0.0102,0,0,0.0162,0.0167,0.0171,0.0178,0.0177,0.0189,0.0171,0.0175,0.0185,0.0157,0.0168,0.0154,0.0139,0.0144,0.0144,0.0136,0.0145,0.0144,0.0147,0.0151,0.0138,0.0142,0.0146,0.0103,0.0103,0.0103,0,0,0.0177,0.0178,0.0192,0.0197,0.02,0.02,0.0204,0.0202,0.02,0.0206,0.019,0.0185,0.0178,0.0171,0.0167,0.0186,0.0164,0.0184,0.0214,0.0203,0.0206,0.0209,0.0192,0.0193,0.0187,0.0187,0.0187,0,0.018,0.02,0.0195,0.0211,0.0222,0.021,0.023,0.0227,0.0224,0.023,0.0216,0.0209,0.0192,0.0202,0.0207,0.0196,0.0184,0.0199,0.0209,0.0211,0.0213,0.0195,0.0195,0.019,0.0189,0.0189,0.0189,0,0.0207,0.0223,0.0233,0.0254,0.0261,0.0276,0.0277,0.0282,0.0279,0.0279,0.0284,0.0259,0.0257,0.025,0.0234,0.0243,0.0228,0.0214,0.0199,0.022,0.0199,0.0199,0.0193,0.0192,0.0192,0.0191,0,0,0.0218,0.0248,0.0252,0.0272,0.0287,0.0299,0.0317,0.0335,0.0357,0.034,0.0362,0.0342,0.0327,0.032,0.0297,0.0284,0.028,0.0259,0.0257,0.0246,0.0254,0.0245,0.0243,0.027,0.027,0.027,0.0234,0,0.0244,0.0286,0.0292,0.0334,0.036,0.0359,0.0382,0.0394,0.0399,0.0415,0.0386,0.0394,0.0355,0.0354,0.0336,0.0298,0.0281,0.0291,0.0232,0.0231,0.0223,0.0243,0.0254,0.0223,0.0233,0.0233,0.0233,0,0.0272,0.03,0.0345,0.0388,0.0399,0.0421,0.0462,0.048,0.0494,0.0497,0.0494,0.0471,0.0452,0.0411,0.0356,0.0366,0.0315,0.0278,0.0275,0.0251,0.0221,0.0204,0.0221,0.0231,0.0232,0.0232,0.0232,0,0.0292,0.0338,0.0379,0.0393,0.0436,0.0457,0.0481,0.0508,0.0539,0.055,0.0571,0.0538,0.053,0.0464,0.0381,0.0372,0.0316,0.0292,0.0233,0.0231,0.0221,0.0219,0.0249,0.0249,0.0249,0.0249,0.025,0,0.0322,0.0355,0.0393,0.0418,0.0474,0.049,0.0551,0.0568,0.0604,0.0655,0.0617,0.0638,0.0544,0.0497,0.0408,0.0324,0.0335,0.0244,0.0225,0.0237,0.0236,0.0228,0.0226,0.0248,0.0248,0.0249,0.0249,0,0.0339,0.0362,0.0415,0.0466,0.0486,0.0528,0.0599,0.0646,0.0672,0.0734,0.0739,0.0718,0.0663,0.0559,0.0455,0.037,0.028,0.0242,0.026,0.0244,0.0194,0.0195,0.018,0.0179,0.0179,0.0178,0.0178,0,0.0353,0.0381,0.0449,0.0488,0.0514,0.0578,0.0628,0.0675,0.073,0.0787,0.0818,0.0784,0.077,0.0614,0.0464,0.0317,0.0286,0.0217,0.02,0.0206,0.0189,0.019,0.0192,0.02,0.02,0.02,0.02,0,0.038,0.0402,0.0447,0.0523,0.0582,0.0655,0.0728,0.078,0.0844,0.0897,0.0946,0.0936,0.0803,0.0663,0.0462,0.0354,0.0243,0.0211,0.022,0.0219,0.0223,0.0207,0.0208,0.0199,0.0199,0.0199,0.0199,0.0199,0.0399,0.0434,0.049,0.0562,0.0633,0.0718,0.0781,0.0864,0.0952,0.1031,0.1025,0.1014,0.0859,0.0607,0.0433,0.0246,0.0256,0.0174,0.0175,0.0176,0.0188,0.0191,0.0163,0.0163,0.0163,0.0163,0.0162,0,0.042,0.0461,0.0526,0.0611,0.0685,0.0724,0.0839,0.0902,0.1005,0.1078,0.1118,0.0959,0.0811,0.0623,0.036,0.0202,0.0183,0.0135,0.0151,0.0153,0.0155,0.0166,0.0135,0.0134,0.0134,0.0133,0,0,0.0433,0.0487,0.0518,0.063,0.0697,0.0797,0.0863,0.0961,0.1033,0.1098,0.1099,0.1086,0.0867,0.0665,0.0454,0.03,0.0258,0.0259,0.0299,0.0347,0.035,0.0196,0.0218,0,0,0,0,0]}],[{"header":{"parameterUnit":"m.s-1","parameterCategory":2,"la1":30.2991,"la2":30.254,"lo1":-89.0895,"lo2":-89.0444,"dy":0.0017,"dx":0.0017,"nx":28,"ny":28,"refTime":"2025-02-07T09:00:00:Z","depth":"4","parameterNumber":2,"parameterNumberName":"U-component_of_CURRENTS"},"data":[0,0,0,0,0,0,0,0,0,0,0,0,0,0,0,0,0,0,0,0,0,0,0,0,0,0,0,0,0,0,0,0,0,0,0,0,0,0,0,0,0,0,0,0,0,0,0,0,0,0,0,0,0,0,0,0,0,0,0.1195,0.1196,0,0.123,0.1231,0.1231,0.1265,0.1266,0.1266,0.1267,0.1309,0.131,0.1311,0,0,0,0,0,0,0,0,0,0,0,0,0,0.1162,0.1163,0.1195,0.1196,0.1196,0.123,0.1231,0.1231,0.1265,0.1266,0.1266,0.1267,0.1309,0.131,0.1311,0,0,0,0,0,0,0,0,0,0,0,0,0,0.1184,0.1163,0.1195,0.1218,0.1221,0.123,0.1231,0.1231,0.1265,0.1266,0.1266,0.1267,0.1309,0.131,0.1311,0.13,0,0,0.1314,0.1314,0,0,0,0,0,0,0,0,0.1182,0.1185,0.1214,0.1217,0.122,0.1245,0.1235,0.1255,0.1265,0.1247,0.1267,0.1268,0.1289,0.1292,0.1294,0.1302,0.1304,0.1314,0.1314,0.1315,0.1315,0,0,0,0,0,0,0,0.1181,0.1183,0.1208,0.1215,0.1218,0.1229,0.1232,0.1239,0.1262,0.1248,0.1251,0.1257,0.129,0.1293,0.1296,0.1304,0.1314,0.1315,0.1315,0.1315,0.139,0.1391,0,0,0,0,0,0,0.1178,0.1182,0.1207,0.1209,0.1204,0.1229,0.1233,0.1235,0.1262,0.1267,0.1256,0.1258,0.1291,0.1295,0.1297,0.1359,0.1315,0.1316,0.1316,0.1388,0.139,0.1392,0,0,0,0,0,0,0.1177,0.118,0.1205,0.1198,0.1202,0.1228,0.1231,0.1235,0.1266,0.1268,0.1273,0.1285,0.1292,0.1296,0.1329,0.1359,0.1316,0.1317,0.1387,0.1389,0.1391,0.1436,0,0,0,0,0,0,0.1176,0.1179,0.1194,0.1197,0.1202,0.1228,0.123,0.1236,0.1267,0.1271,0.1294,0.1297,0.1293,0.1328,0.133,0.1359,0.1318,0.1385,0.1388,0.139,0.1433,0.144,0.1446,0,0,0,0,0,0.1174,0.1185,0.1194,0.1198,0.1217,0.1228,0.1232,0.1253,0.1268,0.1284,0.1304,0.1298,0.1347,0.133,0.1332,0.1362,0.1384,0.1387,0.139,0.143,0.1438,0.1445,0,0,0,0,0,0,0.1181,0.119,0.12,0.1214,0.123,0.1235,0.1257,0.1268,0.1296,0.131,0.1312,0.1316,0.1357,0.1354,0.1335,0.1392,0.1366,0.137,0.1396,0.1404,0.141,0.1405,0.1318,0,0,0,0,0,0.1187,0.12,0.1209,0.1225,0.1235,0.1252,0.1266,0.1279,0.1297,0.1311,0.1327,0.1347,0.1366,0.1382,0.1394,0.1422,0.1419,0.1445,0.1452,0.1457,0.1456,0.1486,0.1494,0.1402,0.1402,0.1402,0,0,0.1195,0.1203,0.1212,0.1229,0.1245,0.126,0.1263,0.1292,0.1312,0.1311,0.1354,0.1369,0.1379,0.1413,0.1431,0.1418,0.1482,0.1461,0.1465,0.1461,0.149,0.1499,0.1507,0.1404,0.1404,0.1404,0,0,0.1207,0.1226,0.1238,0.1252,0.1279,0.1287,0.1301,0.1323,0.1345,0.1381,0.1389,0.1423,0.1452,0.1463,0.1472,0.152,0.1513,0.1533,0.1562,0.1591,0.1599,0.1606,0.161,0.1617,0.1537,0.1537,0.1537,0,0.1221,0.1231,0.1245,0.126,0.1276,0.1302,0.132,0.1341,0.1374,0.1396,0.1405,0.1464,0.1474,0.1512,0.1531,0.1534,0.1543,0.1531,0.1599,0.1605,0.1611,0.1614,0.1621,0.154,0.1539,0.1539,0.1539,0,0.1229,0.1251,0.1262,0.1287,0.1307,0.133,0.1355,0.1388,0.1422,0.1443,0.15,0.1518,0.1554,0.1567,0.1564,0.1616,0.1605,0.1602,0.1577,0.1623,0.1624,0.163,0.1543,0.1542,0.1542,0.1541,0,0,0.1223,0.126,0.1268,0.1284,0.1325,0.1337,0.1382,0.1421,0.1457,0.1503,0.1546,0.159,0.1612,0.1624,0.1633,0.1657,0.1706,0.1653,0.1654,0.1652,0.1763,0.1637,0.1631,0.1722,0.1724,0.1725,0.1744,0,0.1229,0.1255,0.1276,0.1312,0.1326,0.1366,0.1401,0.1445,0.149,0.154,0.158,0.1626,0.1631,0.1658,0.1688,0.1703,0.1726,0.17,0.1722,0.1722,0.16,0.1635,0.173,0.1748,0.175,0.1751,0.1751,0,0.1223,0.1243,0.1275,0.132,0.1332,0.1363,0.1427,0.1463,0.1535,0.1574,0.1635,0.1665,0.1719,0.1713,0.1771,0.1759,0.1767,0.1771,0.1772,0.164,0.1607,0.1694,0.1762,0.1761,0.1761,0.176,0.1759,0,0.1193,0.124,0.1267,0.1282,0.1338,0.1371,0.1411,0.1481,0.152,0.1605,0.1647,0.1711,0.1755,0.1784,0.1805,0.1799,0.1851,0.1841,0.1731,0.1722,0.1809,0.1802,0.1876,0.1876,0.1876,0.1876,0.1876,0,0.1172,0.1197,0.1261,0.1273,0.1315,0.1363,0.1421,0.1471,0.1548,0.1592,0.167,0.1705,0.1781,0.1817,0.1822,0.179,0.187,0.1733,0.172,0.1827,0.1822,0.1813,0.1805,0.1877,0.1877,0.1876,0.1876,0,0.1128,0.1171,0.1205,0.1275,0.1301,0.1335,0.1422,0.1457,0.1545,0.1605,0.1636,0.1725,0.1765,0.1811,0.1852,0.18,0.1786,0.1754,0.1858,0.1851,0.163,0.1625,0.1624,0.162,0.1616,0.1613,0.1611,0,0.1104,0.1119,0.1199,0.1222,0.1259,0.132,0.1356,0.1447,0.148,0.1595,0.1607,0.1688,0.1731,0.1684,0.1743,0.1734,0.1716,0.1691,0.1661,0.1617,0.1606,0.1607,0.1606,0.1605,0.1604,0.1603,0.1602,0,0.1059,0.1102,0.1131,0.1179,0.1222,0.1259,0.1318,0.1332,0.1428,0.1526,0.1534,0.1546,0.1585,0.1601,0.1608,0.1601,0.1695,0.1653,0.166,0.1631,0.1594,0.1587,0.1591,0.159,0.1592,0.1593,0.1594,0,0.1033,0.1042,0.1088,0.1118,0.1168,0.1172,0.1215,0.124,0.1282,0.1401,0.1399,0.148,0.1564,0.1532,0.1538,0.1521,0.1494,0.1435,0.1453,0.1468,0.1407,0.1337,0.1239,0,0,0,0,0,0.0997,0.0993,0.1018,0.1038,0.1083,0.111,0.1173,0.1215,0.1309,0.1274,0.133,0.1352,0.1356,0.1399,0.1348,0.1472,0.1506,0.1406,0.1448,0.1521,0.1535,0.1478,0,0,0,0,0,0,0.097,0.0993,0.099,0.0964,0.0965,0.0998,0.1034,0.1096,0.1078,0.118,0.119,0.1266,0.1294,0.1374,0.1324,0.1335,0.133,0.1459,0.1455,0.1513,0.1526,0.1537,0.1483,0,0,0,0,0]},{"header":{"parameterUnit":"m.s-1","parameterCategory":2,"la1":30.2991,"la2":30.254,"lo1":-89.0895,"lo2":-89.0444,"dy":0.0017,"dx":0.0017,"nx":28,"ny":28,"refTime":"2025-02-07T09:00:00:Z","depth":"4","parameterNumber":3,"parameterNumberName":"V-component_of_CURRENTS"},"data":[0,0,0,0,0,0,0,0,0,0,0,0,0,0,0,0,0,0,0,0,0,0,0,0,0,0,0,0,0,0,0,0,0,0,0,0,0,0,0,0,0,0,0,0,0,0,0,0,0,0,0,0,0,0,0,0,0,0,0.0075,0.0075,0,0.0061,0.0061,0.0061,0.0049,0.0049,0.0049,0.0049,0.0026,0.0026,0.0025,0,0,0,0,0,0,0,0,0,0,0,0,0,0.0069,0.0069,0.0075,0.0075,0.0075,0.0061,0.0061,0.0061,0.0049,0.0049,0.0049,0.0049,0.0026,0.0026,0.0025,0,0,0,0,0,0,0,0,0,0,0,0,0,0.0064,0.0069,0.0075,0.0068,0.0068,0.0061,0.0061,0.006,0.0049,0.0049,0.0049,0.0049,0.0027,0.0026,0.0025,0.002,0,0,0.0022,0.0022,0,0,0,0,0,0,0,0,0.0065,0.0064,0.0069,0.0069,0.0068,0.0058,0.005,0.0047,0.005,0.0055,0.0049,0.0049,0.0036,0.0035,0.0031,0.0019,0.0018,0.0022,0.0022,0.0021,0.0021,0,0,0,0,0,0,0,0.0065,0.0065,0.0069,0.0069,0.0069,0.0058,0.0058,0.0049,0.0046,0.0055,0.0054,0.0054,0.0036,0.0032,0.003,0.0018,0.0022,0.0021,0.0021,0.002,0.0012,0.0012,0,0,0,0,0,0,0.007,0.0065,0.0069,0.0068,0.0067,0.0058,0.0058,0.006,0.0046,0.0044,0.0054,0.0054,0.0034,0.0032,0.003,0.0039,0.0021,0.002,0.002,0.0011,0.0012,0.0012,0,0,0,0,0,0,0.007,0.007,0.007,0.0067,0.0066,0.0059,0.0062,0.006,0.0059,0.0046,0.0043,0.0055,0.0033,0.0031,0.0028,0.0038,0.002,0.0019,0.0011,0.0011,0.0012,0.0048,0,0,0,0,0,0,0.007,0.0071,0.0073,0.0067,0.0067,0.0071,0.0062,0.006,0.0059,0.0059,0.0046,0.0043,0.0033,0.0029,0.0027,0.0036,0.0018,0.0011,0.0011,0.0012,0.0046,0.005,0.0052,0,0,0,0,0,0.007,0.0075,0.0074,0.0074,0.0071,0.0071,0.007,0.0063,0.006,0.0062,0.0054,0.0044,0.0031,0.0029,0.0026,0.0035,0.001,0.0011,0.0012,0.0045,0.0049,0.0052,0,0,0,0,0,0,0.0073,0.0075,0.0073,0.0078,0.0077,0.007,0.0071,0.0066,0.0061,0.0061,0.0047,0.0045,0.0045,0.0034,0.0032,0.0034,0.0019,0.0019,0.0046,0.0049,0.0052,0.0059,0.0018,0,0,0,0,0,0.0076,0.0082,0.008,0.0084,0.0085,0.0079,0.0077,0.0074,0.0069,0.0066,0.0059,0.005,0.0045,0.0043,0.0034,0.0036,0.0022,0.0039,0.0042,0.0045,0.0048,0.0036,0.0038,0.0014,0.0014,0.0014,0,0,0.0078,0.008,0.0083,0.0085,0.0083,0.0091,0.0078,0.0079,0.0086,0.0065,0.0071,0.0059,0.0046,0.0048,0.0048,0.0042,0.0044,0.0046,0.0048,0.005,0.0037,0.0039,0.0041,0.0015,0.0015,0.0014,0,0,0.0088,0.0088,0.0097,0.01,0.0101,0.01,0.0102,0.0099,0.0098,0.01,0.0088,0.0082,0.0075,0.0068,0.0064,0.0078,0.0059,0.0075,0.0099,0.0087,0.0089,0.009,0.0076,0.0075,0.0079,0.0079,0.0079,0,0.009,0.0103,0.0099,0.0109,0.0116,0.0107,0.012,0.0119,0.0114,0.0118,0.0108,0.0098,0.0085,0.0089,0.0094,0.0085,0.0074,0.0087,0.0091,0.0092,0.0093,0.0078,0.0077,0.0081,0.0081,0.0081,0.0081,0,0.0108,0.0119,0.0125,0.0139,0.0144,0.0153,0.0154,0.0158,0.0155,0.0154,0.0155,0.0135,0.0132,0.0125,0.0113,0.0117,0.0105,0.0095,0.0083,0.0098,0.008,0.0079,0.0084,0.0083,0.0083,0.0082,0,0,0.0114,0.0134,0.0137,0.0151,0.0162,0.017,0.0183,0.0195,0.0211,0.0197,0.021,0.0194,0.0182,0.0176,0.0158,0.0146,0.014,0.0127,0.0125,0.0115,0.0112,0.0106,0.0103,0.0131,0.0131,0.0131,0.0098,0,0.0131,0.0159,0.0164,0.0194,0.0211,0.0212,0.023,0.0237,0.024,0.025,0.0226,0.0231,0.0203,0.0203,0.0186,0.0154,0.0138,0.0149,0.0098,0.0096,0.009,0.0102,0.0131,0.0097,0.0097,0.0096,0.0096,0,0.0148,0.0167,0.0199,0.023,0.0238,0.0255,0.0285,0.0299,0.0308,0.031,0.0305,0.0287,0.0271,0.0241,0.0193,0.0203,0.0162,0.013,0.0128,0.0109,0.0087,0.0078,0.0094,0.0094,0.0094,0.0094,0.0094,0,0.0159,0.0192,0.0221,0.0231,0.0264,0.028,0.03,0.0319,0.0342,0.035,0.0364,0.0336,0.0329,0.0275,0.0209,0.0204,0.015,0.0133,0.0086,0.0085,0.0084,0.0083,0.0095,0.0095,0.0095,0.0095,0.0095,0,0.0177,0.0201,0.0231,0.0248,0.029,0.0303,0.035,0.0362,0.039,0.0426,0.0399,0.0411,0.0338,0.0298,0.0227,0.0157,0.0164,0.0093,0.0078,0.01,0.0101,0.0083,0.0082,0.0094,0.0094,0.0095,0.0095,0,0.0184,0.0203,0.0241,0.0281,0.0297,0.0328,0.0386,0.0421,0.0442,0.0486,0.049,0.0471,0.0424,0.0343,0.0255,0.019,0.0115,0.0085,0.0117,0.0104,0.0052,0.0053,0.0034,0.0033,0.0033,0.0032,0.0032,0,0.0189,0.0209,0.0263,0.0293,0.0315,0.0365,0.0406,0.0443,0.0483,0.0523,0.0542,0.0514,0.0488,0.0364,0.0271,0.014,0.0114,0.0068,0.0055,0.0059,0.0047,0.0049,0.005,0.0031,0.0031,0.0031,0.0031,0,0.0201,0.0221,0.0253,0.0314,0.0361,0.0419,0.0475,0.0507,0.0555,0.0576,0.0589,0.0531,0.0478,0.0372,0.0273,0.0174,0.0095,0.0064,0.0064,0.0051,0.0056,0.0045,0.0047,0.003,0.003,0.003,0.003,0,0.021,0.0234,0.0277,0.0332,0.0392,0.0452,0.0485,0.0533,0.0571,0.0611,0.0613,0.0557,0.0527,0.0391,0.0298,0.0204,0.0173,0.0125,0.0121,0.0121,0.0151,0.0171,0.0173,0,0,0,0,0,0.0218,0.0246,0.0294,0.0355,0.0416,0.0453,0.0524,0.0554,0.0599,0.0612,0.0615,0.0565,0.0445,0.0395,0.0301,0.0276,0.0146,0.0159,0.0087,0.0022,0.0024,0.0043,0,0,0,0,0,0,0.0223,0.0265,0.029,0.0363,0.0407,0.0477,0.0524,0.0558,0.0566,0.0595,0.0535,0.0523,0.0405,0.0497,0.0292,0.0266,0.0202,0.011,0.0107,0.0021,0.0023,0.0024,0.0044,0,0,0,0,0]}]]